Location: Le Hiès Ruisseau
(43.3000°N, 0.4500°W)
Time: 13:42:19
(UTC+00:00)

Cosmos 1140 Rocket - Pass Details

Date: 28 January 2023
Orbit: 744 x 766 km, 74.1° (Epoch: 20 March)

Event Time Altitude Azimuth Distance (km) Brightness Sun altitude
Rises 18:03:01 0° 184° (S) 3,203 7.0 -10.2°
Reaches altitude 10° 18:05:25 10° 179° (S) 2,279 6.1 -10.7°
Maximum altitude 18:10:24 51° 105° (ESE) 949 3.7 -11.5°
Drops below altitude 10° 18:15:23 10° 30° (NNE) 2,280 5.6 -12.4°
Enters shadow 18:16:35 - 27° (NNE) 2,737 6.0 -12.6°
